WXM80 ListenWXM80 Stop

You find our weather info also at:

UK Metoffice

WeatherCloud

Weather Underground

Northeastern Weather Network

AWEKAS

Citizen Weather Observer Program (CWOP)

HAMweather, WeatherForYou, PWS Weather


Weather Underground History page Text

Daily Summary for March 29, 2017 Units:  Metric    English   Both
« Previous Day
Next Day »
Daily Weekly Monthly Yearly Custom
  High: Low: Average:
Temperature: 13.6 °C 4.4 °C 8 °C
Dew Point: 6.3 °C -1.3 °C 3.9 °C
Humidity: 99 % 54 % 77 %
Wind Speed: 15.1 km/h 0 km/h 6 km/h
Wind Gust: 25.9 km/h - -
Wind:- - SSW
Pressure: 1022.9 hPa 1012.1 hPa -
Precipitation: 0 mm    
Historical Graphs
 
 
Tabular Data for March 29, 2017
Time Temperature Dew Point Pressure Wind Wind Speed Wind Gust Humidity Rainfall Rate (Hourly)
00:02 4.4 °C 4.1 °C 1012.1 hPa NE 0.5 km/h 1.9 km/h 98 % 0 mm
00:07 4.4 °C 4.1 °C 1012.4 hPa Calm     98 % 0 mm
00:12 4.4 °C 4.1 °C 1012.1 hPa Calm     98 % 0 mm
00:17 4.4 °C 4.1 °C 1012.1 hPa Calm     98 % 0 mm
00:22 4.4 °C 4.1 °C 1012.4 hPa Calm     98 % 0 mm
00:27 4.4 °C 4.2 °C 1012.4 hPa Calm     98 % 0 mm
00:32 4.4 °C 4.2 °C 1012.1 hPa Calm     98 % 0 mm
00:37 4.4 °C 4.2 °C 1012.1 hPa Calm     98 % 0 mm
00:42 4.4 °C 4.1 °C 1012.1 hPa Calm     98 % 0 mm
00:47 4.4 °C 4.2 °C 1012.1 hPa Calm     98 % 0 mm
00:52 4.4 °C 4.2 °C 1012.1 hPa Calm     98 % 0 mm
00:57 4.4 °C 4.2 °C 1012.4 hPa Calm     98 % 0 mm
01:02 4.4 °C 4.2 °C 1012.4 hPa Calm   1.6 km/h 98 % 0 mm
01:04 4.4 °C 4.2 °C 1012.4 hPa Calm     98 % 0 mm
01:09 4.5 °C 4.2 °C 1012.4 hPa Calm     98 % 0 mm
01:14 4.6 °C 4.3 °C 1012.4 hPa NNW 0.6 km/h 3.7 km/h 98 % 0 mm
01:19 4.6 °C 4.3 °C 1012.4 hPa Calm   1.9 km/h 98 % 0 mm
01:24 4.6 °C 4.3 °C 1012.4 hPa NNW 1.4 km/h 3.2 km/h 98 % 0 mm
01:30 4.6 °C 4.3 °C 1012.4 hPa NNW 0.2 km/h 3.7 km/h 98 % 0 mm
01:35 4.5 °C 4.2 °C 1012.4 hPa NNW 1 km/h 1.9 km/h 98 % 0 mm
01:40 4.5 °C 4.2 °C 1012.1 hPa NNW 1.8 km/h 3.7 km/h 98 % 0 mm
01:45 4.6 °C 4.3 °C 1012.4 hPa NNW 1.3 km/h 3.7 km/h 98 % 0 mm
01:50 4.6 °C 4.3 °C 1012.4 hPa NW 4.3 km/h 6.4 km/h 98 % 0 mm
01:55 4.6 °C 4.3 °C 1012.1 hPa NW 0.5 km/h 3.7 km/h 98 % 0 mm
02:00 4.7 °C 4.4 °C 1012.4 hPa WNW 3.7 km/h 5.6 km/h 98 % 0 mm
02:05 4.7 °C 4.4 °C 1012.1 hPa WNW 3.5 km/h 5.6 km/h 98 % 0 mm
02:10 4.7 °C 4.4 °C 1012.1 hPa WNW 1 km/h 5.6 km/h 98 % 0 mm
02:15 4.8 °C 4.6 °C 1012.1 hPa WNW 1 km/h 3.7 km/h 98 % 0 mm
02:20 4.9 °C 4.8 °C 1012.4 hPa WNW 1.1 km/h 5.6 km/h 99 % 0 mm
02:25 5.1 °C 4.9 °C 1012.8 hPa WNW 2.4 km/h 5.6 km/h 99 % 0 mm
02:30 5.2 °C 4.9 °C 1012.8 hPa WNW 0.3 km/h 3.7 km/h 98 % 0 mm
02:35 5.3 °C 5 °C 1012.8 hPa WNW 0.2 km/h 5.6 km/h 98 % 0 mm
02:40 5.3 °C 5.1 °C 1012.8 hPa Calm     99 % 0 mm
02:45 5.3 °C 5.2 °C 1012.8 hPa WNW 1.3 km/h 5.6 km/h 99 % 0 mm
02:50 5.4 °C 5.2 °C 1012.8 hPa WNW 2.1 km/h 3.7 km/h 99 % 0 mm
02:55 5.4 °C 5.3 °C 1012.8 hPa WNW 3.7 km/h 4.8 km/h 99 % 0 mm
03:00 5.4 °C 5.3 °C 1012.8 hPa NW 1.8 km/h 5.6 km/h 99 % 0 mm
03:06 5.5 °C 5.3 °C 1012.8 hPa West 5 km/h 7.4 km/h 99 % 0 mm
03:11 5.5 °C 5.3 °C 1012.8 hPa WNW 4.8 km/h 5.6 km/h 99 % 0 mm
03:16 5.6 °C 5.4 °C 1012.8 hPa WNW 0.5 km/h 3.7 km/h 99 % 0 mm
03:21 5.6 °C 5.4 °C 1012.8 hPa WNW 2.4 km/h 5.6 km/h 99 % 0 mm
03:26 5.6 °C 5.4 °C 1012.8 hPa Calm   1.9 km/h 99 % 0 mm
03:31 5.6 °C 5.4 °C 1012.8 hPa WNW 1.6 km/h 4.8 km/h 99 % 0 mm
03:36 5.7 °C 5.5 °C 1013.1 hPa WNW 1.8 km/h 5.6 km/h 99 % 0 mm
03:41 5.7 °C 5.6 °C 1012.8 hPa WNW 0.8 km/h 3.7 km/h 99 % 0 mm
03:46 5.7 °C 5.6 °C 1013.1 hPa WNW 2.7 km/h 4.8 km/h 99 % 0 mm
03:51 5.8 °C 5.6 °C 1013.1 hPa WNW 4.2 km/h 6.4 km/h 99 % 0 mm
03:56 5.8 °C 5.6 °C 1013.1 hPa WNW 3.2 km/h 5.6 km/h 99 % 0 mm
04:01 5.8 °C 5.7 °C 1013.1 hPa NW 2.1 km/h 5.6 km/h 99 % 0 mm
04:06 5.8 °C 5.6 °C 1013.4 hPa NW 1.3 km/h 5.6 km/h 98 % 0 mm
04:11 5.8 °C 5.7 °C 1013.4 hPa NW 1.1 km/h 3.7 km/h 99 % 0 mm
04:13 5.9 °C 5.7 °C 1013.4 hPa NW 0.6 km/h 3.7 km/h 99 % 0 mm
04:18 5.9 °C 5.7 °C 1013.4 hPa NW 0.6 km/h 1.9 km/h 99 % 0 mm
04:23 5.9 °C 5.7 °C 1013.4 hPa NW 0.5 km/h 1.9 km/h 99 % 0 mm
04:28 5.9 °C 5.8 °C 1013.4 hPa NW 2.1 km/h 3.7 km/h 99 % 0 mm
04:33 5.9 °C 5.8 °C 1013.4 hPa WNW 0.2 km/h   99 % 0 mm
04:38 6 °C 5.8 °C 1013.8 hPa WNW 2.1 km/h 5.6 km/h 99 % 0 mm
04:43 6 °C 5.8 °C 1013.8 hPa NW 3.7 km/h 5.6 km/h 99 % 0 mm
04:48 6.1 °C 5.9 °C 1013.8 hPa NW 1.1 km/h 7.4 km/h 99 % 0 mm
04:53 6.1 °C 5.9 °C 1013.8 hPa WNW 2.9 km/h 5.6 km/h 99 % 0 mm
04:59 6.2 °C 6 °C 1013.8 hPa NW 4.8 km/h 9.7 km/h 99 % 0 mm
05:04 6.2 °C 6 °C 1013.8 hPa WNW 3.1 km/h 9.3 km/h 99 % 0 mm
05:09 6.2 °C 6.1 °C 1014.1 hPa NW 2.4 km/h 11.1 km/h 99 % 0 mm
05:14 6.2 °C 6.1 °C 1013.8 hPa WNW 2.7 km/h 9.3 km/h 99 % 0 mm
05:19 6.2 °C 6.1 °C 1013.8 hPa NW 4.8 km/h 7.4 km/h 99 % 0 mm
05:24 6.2 °C 6.1 °C 1014.1 hPa NNW 6.3 km/h 13 km/h 99 % 0 mm
05:29 6.1 °C 5.9 °C 1014.1 hPa North 5.5 km/h 11.1 km/h 99 % 0 mm
05:34 6 °C 5.8 °C 1014.4 hPa NW 2.7 km/h 5.6 km/h 99 % 0 mm
05:39 5.9 °C 5.7 °C 1014.1 hPa North 3.4 km/h 6.4 km/h 99 % 0 mm
05:44 5.8 °C 5.5 °C 1014.1 hPa NW 4.3 km/h 7.4 km/h 98 % 0 mm
05:49 5.7 °C 5.4 °C 1014.4 hPa North 4.5 km/h 9.7 km/h 98 % 0 mm
05:54 5.7 °C 5.5 °C 1014.4 hPa NW 4.7 km/h 7.4 km/h 99 % 0 mm
05:59 5.7 °C 5.4 °C 1014.4 hPa WNW 4.7 km/h 7.4 km/h 98 % 0 mm
06:04 5.6 °C 5.3 °C 1014.4 hPa NNW 8.5 km/h 17.7 km/h 98 % 0 mm
06:09 5.6 °C 5.3 °C 1014.8 hPa NW 7.4 km/h 11.1 km/h 98 % 0 mm
06:14 5.6 °C 5.3 °C 1014.4 hPa WNW 5 km/h 9.3 km/h 98 % 0 mm
06:19 5.6 °C 5.3 °C 1014.4 hPa NW 4.3 km/h 14.8 km/h 98 % 0 mm
06:24 5.5 °C 5.2 °C 1014.8 hPa NNW 3.5 km/h 9.3 km/h 98 % 0 mm
06:29 5.5 °C 5.2 °C 1014.8 hPa NNW 7.4 km/h 14.8 km/h 98 % 0 mm
06:34 5.4 °C 5.2 °C 1015.1 hPa NNW 3.5 km/h 14.8 km/h 98 % 0 mm
06:40 5.4 °C 5.2 °C 1015.1 hPa NW 6.1 km/h 11.3 km/h 98 % 0 mm
06:45 5.4 °C 5.2 °C 1015.5 hPa NW 4 km/h 8 km/h 98 % 0 mm
06:50 5.4 °C 5.2 °C 1015.5 hPa NNE 5 km/h 11.1 km/h 98 % 0 mm
06:55 5.4 °C 5.2 °C 1015.5 hPa NNE 6.9 km/h 11.3 km/h 98 % 0 mm
07:00 5.4 °C 5 °C 1015.1 hPa NNE 3.4 km/h 5.6 km/h 97 % 0 mm
07:05 5.4 °C 5 °C 1015.5 hPa North 3.7 km/h 5.6 km/h 97 % 0 mm
07:10 5.4 °C 5 °C 1015.5 hPa North 7.2 km/h 13 km/h 97 % 0 mm
07:15 5.5 °C 5.1 °C 1015.5 hPa North 2.4 km/h 11.1 km/h 97 % 0 mm
07:20 5.6 °C 4.9 °C 1015.5 hPa NNW 3.1 km/h 7.4 km/h 96 % 0 mm
07:25 5.6 °C 4.9 °C 1015.8 hPa North 3.9 km/h 11.3 km/h 96 % 0 mm
07:30 5.6 °C 5 °C 1015.8 hPa NNW 1.8 km/h 5.6 km/h 96 % 0 mm
07:35 5.6 °C 4.9 °C 1016.1 hPa NW 1.1 km/h 4.8 km/h 95 % 0 mm
07:40 5.7 °C 4.9 °C 1015.8 hPa NNW 1.8 km/h 8 km/h 95 % 0 mm
07:45 5.8 °C 5.1 °C 1016.1 hPa NW 3.4 km/h 7.4 km/h 95 % 0 mm
07:50 5.9 °C 5.2 °C 1015.8 hPa NW 4.7 km/h 9.3 km/h 95 % 0 mm
07:55 6.1 °C 5.2 °C 1015.8 hPa NNW 1.9 km/h 7.4 km/h 94 % 0 mm
08:00 6.2 °C 5.1 °C 1016.1 hPa NW 5.6 km/h 11.1 km/h 93 % 0 mm
08:03 6.3 °C 5.2 °C 1016.1 hPa North 3.7 km/h 9.3 km/h 93 % 0 mm
08:08 6.4 °C 5.2 °C 1016.1 hPa NW 3.4 km/h 7.4 km/h 92 % 0 mm
08:13 6.6 °C 5.2 °C 1016.1 hPa NNW 5.5 km/h 7.4 km/h 91 % 0 mm
08:18 6.7 °C 5.2 °C 1016.1 hPa NNE 5 km/h 9.3 km/h 90 % 0 mm
08:23 6.8 °C 5.3 °C 1016.1 hPa North 5 km/h 13 km/h 90 % 0 mm
08:28 6.9 °C 5.2 °C 1016.1 hPa North 2.9 km/h 5.6 km/h 89 % 0 mm
08:33 6.9 °C 5.2 °C 1016.1 hPa NNW 5.3 km/h 9.3 km/h 89 % 0 mm
08:38 7 °C 5.3 °C 1016.5 hPa North 1.3 km/h 13 km/h 89 % 0 mm
08:43 7.1 °C 5.2 °C 1016.1 hPa North 4.7 km/h 5.6 km/h 88 % 0 mm
08:48 7.3 °C 5.7 °C 1016.1 hPa North 5.1 km/h 11.1 km/h 89 % 0 mm
08:53 7.6 °C 5.6 °C 1016.1 hPa NNW 5.8 km/h 9.7 km/h 87 % 0 mm
08:58 7.8 °C 5.7 °C 1016.1 hPa NE 6.3 km/h 8 km/h 87 % 0 mm
09:03 8.1 °C 5.7 °C 1016.1 hPa North 6.6 km/h 9.7 km/h 85 % 0 mm
09:08 8.1 °C 5.4 °C 1016.5 hPa North 7.6 km/h 11.1 km/h 83 % 0 mm
09:13 8.1 °C 5.4 °C 1016.5 hPa NNE 7.4 km/h 11.1 km/h 83 % 0 mm
09:18 8 °C 5.1 °C 1016.8 hPa NNE 6.8 km/h 16.7 km/h 82 % 0 mm
09:23 7.9 °C 5.1 °C 1016.8 hPa North 7.7 km/h 18.5 km/h 82 % 0 mm
09:28 7.8 °C 4.7 °C 1016.8 hPa NE 12.4 km/h 22.2 km/h 81 % 0 mm
09:33 7.7 °C 4.4 °C 1016.8 hPa North 10.1 km/h 18.5 km/h 80 % 0 mm
09:39 7.6 °C 4.5 °C 1016.8 hPa NNW 10.6 km/h 17.7 km/h 81 % 0 mm
09:44 7.5 °C 4.4 °C 1016.8 hPa NNW 9.2 km/h 16.7 km/h 81 % 0 mm
09:49 7.4 °C 4.4 °C 1016.5 hPa NNW 8.9 km/h 14.8 km/h 81 % 0 mm
09:54 7.5 °C 4.6 °C 1016.8 hPa North 8.9 km/h 13 km/h 82 % 0 mm
09:59 7.6 °C 4.7 °C 1016.8 hPa NNE 4.2 km/h 9.3 km/h 82 % 0 mm
10:04 7.6 °C 4.5 °C 1016.8 hPa NW 6.3 km/h 18.5 km/h 81 % 0 mm
10:09 7.6 °C 4.6 °C 1016.8 hPa NW 3.2 km/h 9.3 km/h 81 % 0 mm
10:14 7.7 °C 4.7 °C 1016.8 hPa NW 6.1 km/h 9.3 km/h 81 % 0 mm
10:19 7.8 °C 4.8 °C 1016.8 hPa NW 9.3 km/h 13 km/h 81 % 0 mm
10:24 7.9 °C 4.7 °C 1016.8 hPa North 10.5 km/h 18.5 km/h 80 % 0 mm
10:29 8.2 °C 5.1 °C 1017.2 hPa NW 8.7 km/h 12.9 km/h 81 % 0 mm
10:34 8.3 °C 4.8 °C 1017.2 hPa WNW 7.7 km/h 11.3 km/h 79 % 0 mm
10:35 8.3 °C 4.9 °C 1017.2 hPa NNW 7.7 km/h 11.1 km/h 79 % 0 mm
10:40 8.6 °C 5.3 °C 1017.2 hPa NNW 2.3 km/h 7.4 km/h 80 % 0 mm
10:45 8.8 °C 4.9 °C 1017.2 hPa NNW 5.5 km/h 11.1 km/h 77 % 0 mm
10:50 8.9 °C 5.1 °C 1017.2 hPa NNW 9 km/h 14.8 km/h 77 % 0 mm
10:55 9.1 °C 5.7 °C 1017.2 hPa NNW 6.9 km/h 17.7 km/h 79 % 0 mm
11:00 9.3 °C 5.1 °C 1017.2 hPa NNW 9.5 km/h 18.5 km/h 75 % 0 mm
11:05 9.5 °C 5.7 °C 1017.2 hPa NNW 8.5 km/h 11.1 km/h 77 % 0 mm
11:10 9.7 °C 5.3 °C 1017.2 hPa NNW 7.6 km/h 14.8 km/h 74 % 0 mm
11:16 9.8 °C 5.4 °C 1017.2 hPa WNW 7.9 km/h 16.7 km/h 74 % 0 mm
11:21 9.9 °C 5.7 °C 1017.5 hPa NW 6.4 km/h 9.3 km/h 75 % 0 mm
11:26 10 °C 5.4 °C 1017.5 hPa NW 6.9 km/h 14.8 km/h 73 % 0 mm
11:31 10.1 °C 5.7 °C 1017.5 hPa NNW 8.9 km/h 13 km/h 74 % 0 mm
11:33 10.2 °C 5.6 °C 1017.5 hPa WNW 3.5 km/h 7.4 km/h 73 % 0 mm
11:38 10.3 °C 5.1 °C 1017.2 hPa NNW 11.3 km/h 18.5 km/h 70 % 0 mm
11:43 10.4 °C 5.6 °C 1016.8 hPa North 9.7 km/h 24.1 km/h 72 % 0 mm
11:48 10.5 °C 5.4 °C 1017.2 hPa NW 5.1 km/h 9.3 km/h 71 % 0 mm
11:53 10.7 °C 6.1 °C 1016.8 hPa NW 6.8 km/h 13 km/h 73 % 0 mm
11:58 10.8 °C 5.5 °C 1017.2 hPa NNW 11.4 km/h 18.5 km/h 70 % 0 mm
12:03 10.8 °C 5.9 °C 1017.2 hPa WNW 7.1 km/h 11.3 km/h 72 % 0 mm
12:08 11 °C 5.7 °C 1017.2 hPa WNW 5.1 km/h 7.4 km/h 70 % 0 mm
12:13 11.2 °C 6.1 °C 1016.8 hPa NNE 6.6 km/h 9.7 km/h 71 % 0 mm
12:18 11.3 °C 5.2 °C 1016.8 hPa North 12.4 km/h 16.7 km/h 66 % 0 mm
12:23 11.3 °C 5.4 °C 1016.8 hPa NNW 10.9 km/h 20.4 km/h 67 % 0 mm
12:28 11.3 °C 5.6 °C 1016.8 hPa NNW 9.5 km/h 13 km/h 68 % 0 mm
12:33 11.6 °C 5.4 °C 1016.8 hPa NE 9.2 km/h 14.8 km/h 66 % 0 mm
12:38 11.7 °C 5.6 °C 1016.8 hPa NE 11.4 km/h 14.8 km/h 66 % 0 mm
12:44 11.9 °C 5.8 °C 1016.8 hPa NNW 9.2 km/h 14.8 km/h 66 % 0 mm
12:49 12.2 °C 6 °C 1016.8 hPa NNE 9.7 km/h 16.1 km/h 66 % 0 mm
12:54 12.2 °C 5.6 °C 1016.5 hPa NE 10.8 km/h 13 km/h 64 % 0 mm
12:59 12.4 °C 6.1 °C 1016.8 hPa NE 7.2 km/h 13 km/h 65 % 0 mm
13:04 12.6 °C 5.9 °C 1016.5 hPa NNE 7.9 km/h 11.1 km/h 64 % 0 mm
13:09 12.7 °C 6.1 °C 1016.5 hPa North 6.9 km/h 9.7 km/h 64 % 0 mm
13:14 12.9 °C 6.3 °C 1016.5 hPa North 5.6 km/h 8 km/h 64 % 0 mm
13:19 13 °C 5.4 °C 1016.5 hPa North 4.5 km/h 5.6 km/h 60 % 0 mm
13:24 13.2 °C 6.1 °C 1016.5 hPa NE 6.9 km/h 9.3 km/h 62 % 0 mm
13:29 13.2 °C 5.6 °C 1016.5 hPa NNW 5.8 km/h 7.4 km/h 60 % 0 mm
13:34 13.3 °C 6.2 °C 1016.5 hPa NE 3.5 km/h 7.4 km/h 62 % 0 mm
13:39 13.4 °C 6.1 °C 1016.5 hPa NE 3.2 km/h 5.6 km/h 61 % 0 mm
13:44 13.2 °C 5.3 °C 1016.5 hPa NE 5.5 km/h 13 km/h 59 % 0 mm
13:49 13.1 °C 5.4 °C 1016.5 hPa NE 6.3 km/h 6.4 km/h 60 % 0 mm
13:52 13.1 °C 5.9 °C 1016.5 hPa NE 3.9 km/h 6.4 km/h 62 % 0 mm
13:57 13 °C 5.9 °C 1016.5 hPa North 9.2 km/h 14.8 km/h 62 % 0 mm
14:02 13.1 °C 5.7 °C 1016.5 hPa ENE 5.3 km/h 7.4 km/h 61 % 0 mm
14:07 13.2 °C 5.4 °C 1016.5 hPa NE 6.4 km/h 11.1 km/h 59 % 0 mm
14:12 13.3 °C 5.4 °C 1016.5 hPa NNE 4.8 km/h 13 km/h 59 % 0 mm
14:17 13.4 °C 6.1 °C 1016.5 hPa NNE 2.4 km/h 5.6 km/h 61 % 0 mm
14:22 13.6 °C 6.2 °C 1016.5 hPa ENE 3.4 km/h 7.4 km/h 61 % 0 mm
14:27 13.1 °C 5.4 °C 1016.1 hPa ENE 3.2 km/h 5.6 km/h 60 % 0 mm
14:32 12.7 °C 5.1 °C 1016.1 hPa ENE 4 km/h 7.4 km/h 60 % 0 mm
14:37 12.7 °C 5.8 °C 1016.1 hPa NNE 5.5 km/h 9.3 km/h 63 % 0 mm
14:42 12.5 °C 4.9 °C 1016.1 hPa North 2.7 km/h 7.4 km/h 60 % 0 mm
14:47 12.3 °C 5.5 °C 1016.1 hPa ENE 3.5 km/h 8 km/h 63 % 0 mm
14:52 12.4 °C 5.6 °C 1015.8 hPa NE 5.1 km/h 7.4 km/h 63 % 0 mm
14:57 12.4 °C 5.3 °C 1015.8 hPa ENE 2.6 km/h 5.6 km/h 62 % 0 mm
15:02 12.3 °C 5.3 °C 1015.8 hPa East 7.6 km/h 13 km/h 62 % 0 mm
15:07 12.2 °C 5.8 °C 1015.8 hPa NE 2.7 km/h 6.4 km/h 65 % 0 mm
15:12 12.3 °C 5.5 °C 1015.8 hPa ENE 3.1 km/h 5.6 km/h 63 % 0 mm
15:17 12.3 °C 5.5 °C 1015.8 hPa NE 3.9 km/h 7.4 km/h 63 % 0 mm
15:22 12.3 °C 5.2 °C 1015.8 hPa ENE 3.4 km/h 5.6 km/h 62 % 0 mm
15:27 12.2 °C 5.4 °C 1015.8 hPa ENE 3.2 km/h 7.4 km/h 63 % 0 mm
15:32 12.3 °C 5.4 °C 1015.8 hPa NE 5.8 km/h 7.4 km/h 63 % 0 mm
15:37 12.3 °C 5.7 °C 1015.8 hPa NNE 5.8 km/h 9.3 km/h 64 % 0 mm
15:42 12.6 °C 5.7 °C 1015.8 hPa NNE 3.2 km/h 8 km/h 63 % 0 mm
15:47 12.6 °C 5.5 °C 1015.8 hPa NE 3.2 km/h 6.4 km/h 62 % 0 mm
15:52 12.7 °C 5.6 °C 1015.8 hPa NNE 4.8 km/h 9.7 km/h 62 % 0 mm
15:57 12.8 °C 5.2 °C 1015.8 hPa ENE 2.7 km/h 7.4 km/h 60 % 0 mm
16:03 12.6 °C 5 °C 1015.8 hPa ENE 6.3 km/h 11.1 km/h 60 % 0 mm
16:08 12.4 °C 4.8 °C 1015.8 hPa North 4 km/h 5.6 km/h 60 % 0 mm
16:13 12.4 °C 4.8 °C 1015.8 hPa NNE 4.2 km/h 7.4 km/h 60 % 0 mm
16:18 12.3 °C 4.3 °C 1015.8 hPa North 7.9 km/h 14.8 km/h 58 % 0 mm
16:23 12.4 °C 4.2 °C 1015.8 hPa NNE 7.4 km/h 16.7 km/h 57 % 0 mm
16:28 12.6 °C 4.3 °C 1015.8 hPa NE 8.7 km/h 17.7 km/h 57 % 0 mm
16:33 12.7 °C 4.1 °C 1015.8 hPa NNE 10.1 km/h 13 km/h 56 % 0 mm
16:38 12.7 °C 4.4 °C 1015.8 hPa North 7.4 km/h 11.1 km/h 57 % 0 mm
16:43 12.7 °C 4.4 °C 1015.8 hPa North 10.3 km/h 18.5 km/h 57 % 0 mm
16:48 12.6 °C 4.1 °C 1015.8 hPa NE 11.7 km/h 18.5 km/h 56 % 0 mm
16:53 12.5 °C 4.2 °C 1015.8 hPa NE 9.7 km/h 18.5 km/h 57 % 0 mm
16:58 12.4 °C 3.4 °C 1015.8 hPa North 10.8 km/h 18.5 km/h 54 % 0 mm
17:03 12.4 °C 3.4 °C 1015.8 hPa North 11.1 km/h 18.5 km/h 54 % 0 mm
17:08 12.4 °C 3.3 °C 1015.8 hPa NNE 10.3 km/h 14.8 km/h 54 % 0 mm
17:13 12.3 °C 3.3 °C 1016.1 hPa NE 13.8 km/h 19.3 km/h 54 % 0 mm
17:18 12.2 °C 3.1 °C 1016.5 hPa NNE 10.8 km/h 18.5 km/h 54 % 0 mm
17:23 12 °C 3.2 °C 1016.5 hPa NE 13.2 km/h 18.5 km/h 55 % 0 mm
17:28 11.7 °C 3.2 °C 1016.5 hPa NNE 9.3 km/h 14.8 km/h 56 % 0 mm
17:33 11.3 °C 2.8 °C 1016.8 hPa NE 10 km/h 18.5 km/h 56 % 0 mm
17:38 10.9 °C 2.7 °C 1016.8 hPa NNE 13.4 km/h 22.2 km/h 57 % 0 mm
17:43 10.7 °C 2.6 °C 1016.8 hPa NNE 8.4 km/h 16.7 km/h 57 % 0 mm
17:48 10.6 °C 2.6 °C 1016.8 hPa NNW 10 km/h 14.8 km/h 58 % 0 mm
17:53 10.3 °C 2.7 °C 1017.2 hPa NE 8.9 km/h 18.5 km/h 59 % 0 mm
17:58 10.2 °C 2.7 °C 1017.2 hPa North 10.3 km/h 14.8 km/h 60 % 0 mm
18:03 9.9 °C 2.6 °C 1017.2 hPa NNE 10.8 km/h 18.5 km/h 60 % 0 mm
18:08 9.8 °C 1.7 °C 1017.5 hPa North 12.9 km/h 22.2 km/h 57 % 0 mm
18:13 9.7 °C 2.1 °C 1017.5 hPa NNE 12.6 km/h 20.4 km/h 59 % 0 mm
18:19 9.6 °C 2 °C 1017.5 hPa North 10.3 km/h 16.7 km/h 59 % 0 mm
18:24 9.5 °C 2.1 °C 1017.5 hPa North 10.1 km/h 16.7 km/h 60 % 0 mm
18:29 9.3 °C 1.7 °C 1017.8 hPa North 14 km/h 22.2 km/h 59 % 0 mm
18:34 9.2 °C 1.8 °C 1018.2 hPa North 6.9 km/h 13 km/h 60 % 0 mm
18:39 9.1 °C 1.9 °C 1018.2 hPa NNW 9.7 km/h 13 km/h 61 % 0 mm
18:44 8.8 °C 1.9 °C 1018.2 hPa North 11.4 km/h 17.7 km/h 62 % 0 mm
18:50 8.7 °C 1.6 °C 1018.2 hPa NNE 10.9 km/h 18.5 km/h 61 % 0 mm
18:55 8.5 °C 1.6 °C 1018.5 hPa North 7.4 km/h 24.1 km/h 62 % 0 mm
19:00 8.4 °C 1.3 °C 1018.5 hPa NNW 12.1 km/h 18.5 km/h 61 % 0 mm
19:05 8.3 °C 1.7 °C 1018.5 hPa NE 9.3 km/h 16.7 km/h 63 % 0 mm
19:10 8.1 °C 1.7 °C 1018.5 hPa North 8.2 km/h 11.1 km/h 64 % 0 mm
19:15 7.9 °C 1.8 °C 1018.8 hPa North 8.9 km/h 13 km/h 65 % 0 mm
19:20 7.8 °C 1.7 °C 1018.8 hPa NNW 3.5 km/h 11.1 km/h 65 % 0 mm
19:25 7.7 °C 1.7 °C 1018.8 hPa North 7.9 km/h 11.3 km/h 66 % 0 mm
19:30 7.5 °C 1.6 °C 1018.8 hPa NW 4.7 km/h 8 km/h 66 % 0 mm
19:35 7.3 °C 1.4 °C 1018.8 hPa NNE 11.1 km/h 16.7 km/h 66 % 0 mm
19:40 7.2 °C 1.3 °C 1019.2 hPa NNE 8.4 km/h 14.5 km/h 66 % 0 mm
19:45 7.2 °C 0.8 °C 1019.2 hPa North 9.7 km/h 16.7 km/h 64 % 0 mm
19:50 7.1 °C 0.9 °C 1019.2 hPa NNE 9.2 km/h 13 km/h 65 % 0 mm
19:55 7.1 °C 0.9 °C 1019.5 hPa NNE 6.4 km/h 14.8 km/h 65 % 0 mm
20:00 7 °C 0.9 °C 1019.5 hPa NNE 6.9 km/h 13 km/h 65 % 0 mm
20:05 6.9 °C 0.8 °C 1019.5 hPa NNW 5.5 km/h 11.1 km/h 65 % 0 mm
20:10 6.9 °C 0.8 °C 1019.9 hPa NNE 5.3 km/h 11.1 km/h 65 % 0 mm
20:15 6.9 °C 0.8 °C 1019.9 hPa North 8.7 km/h 16.7 km/h 65 % 0 mm
20:20 6.9 °C 0.1 °C 1020.2 hPa North 9.2 km/h 16.7 km/h 62 % 0 mm
20:25 7 °C -0.5 °C 1020.2 hPa NNE 10.3 km/h 16.1 km/h 59 % 0 mm
20:30 7.1 °C 0.1 °C 1020.2 hPa North 9.2 km/h 13 km/h 61 % 0 mm
20:35 7.1 °C 0.3 °C 1020.2 hPa NNW 10.1 km/h 16.1 km/h 62 % 0 mm
20:40 7.1 °C 0.3 °C 1020.5 hPa North 9.8 km/h 18.5 km/h 62 % 0 mm
20:45 7.1 °C 0.1 °C 1020.5 hPa North 8.7 km/h 14.8 km/h 61 % 0 mm
20:50 7.1 °C -0.2 °C 1020.5 hPa North 12.6 km/h 18.5 km/h 60 % 0 mm
20:55 7.1 °C -0.4 °C 1020.9 hPa NNE 9.2 km/h 16.7 km/h 59 % 0 mm
21:00 7.1 °C 0.1 °C 1020.5 hPa NNE 6.3 km/h 11.1 km/h 61 % 0 mm
21:05 7 °C 0 °C 1020.9 hPa North 13.2 km/h 16.1 km/h 61 % 0 mm
21:10 6.9 °C 0.2 °C 1020.9 hPa North 11.3 km/h 14.8 km/h 62 % 0 mm
21:15 6.9 °C -0.1 °C 1020.9 hPa North 5.8 km/h 14.8 km/h 61 % 0 mm
21:20 6.8 °C 0.1 °C 1021.2 hPa North 8.2 km/h 14.5 km/h 62 % 0 mm
21:25 6.8 °C -0.2 °C 1021.2 hPa North 8.7 km/h 9.7 km/h 61 % 0 mm
21:30 6.7 °C -0.1 °C 1021.6 hPa NW 7.1 km/h 14.8 km/h 62 % 0 mm
21:35 6.7 °C -0.3 °C 1021.6 hPa North 10 km/h 14.8 km/h 61 % 0 mm
21:40 6.6 °C -0.4 °C 1021.6 hPa North 12.4 km/h 25.9 km/h 61 % 0 mm
21:45 6.6 °C -0.4 °C 1021.6 hPa NNE 10 km/h 18.5 km/h 61 % 0 mm
21:50 6.5 °C -0.5 °C 1021.6 hPa NNE 12.7 km/h 18.5 km/h 61 % 0 mm
21:55 6.4 °C -0.3 °C 1021.9 hPa NNE 7.2 km/h 14.8 km/h 62 % 0 mm
22:00 6.4 °C -0.4 °C 1021.6 hPa NNE 11.4 km/h 18.5 km/h 62 % 0 mm
22:05 6.3 °C -0.2 °C 1021.6 hPa North 8.5 km/h 13 km/h 63 % 0 mm
22:10 6.3 °C -0.3 °C 1021.9 hPa NE 9 km/h 11.1 km/h 63 % 0 mm
22:15 6.2 °C -0.3 °C 1022.2 hPa NW 6.1 km/h 16.7 km/h 63 % 0 mm
22:20 6.1 °C -0.4 °C 1022.2 hPa NNE 9.5 km/h 13 km/h 63 % 0 mm
22:25 6.1 °C -0.2 °C 1022.2 hPa NNE 6.8 km/h 14.8 km/h 64 % 0 mm
22:30 6 °C -0.1 °C 1022.2 hPa NNE 5.1 km/h 9.7 km/h 65 % 0 mm
22:35 5.9 °C -0.4 °C 1022.2 hPa North 8 km/h 16.7 km/h 64 % 0 mm
22:40 5.8 °C -0.3 °C 1022.2 hPa North 6.8 km/h 14.8 km/h 65 % 0 mm
22:46 5.7 °C -0.3 °C 1022.2 hPa NNE 6.8 km/h 13 km/h 65 % 0 mm
22:51 5.7 °C -0.2 °C 1022.2 hPa NNW 8.2 km/h 16.7 km/h 66 % 0 mm
22:56 5.6 °C -0.9 °C 1022.2 hPa NW 13.8 km/h 20.4 km/h 63 % 0 mm
23:01 5.6 °C -1.3 °C 1022.2 hPa North 10 km/h 16.7 km/h 61 % 0 mm
23:06 5.7 °C -0.8 °C 1022.6 hPa NNW 10.6 km/h 18.5 km/h 63 % 0 mm
23:11 5.6 °C -0.9 °C 1022.6 hPa NNE 6.4 km/h 11.3 km/h 63 % 0 mm
23:16 5.6 °C -1.1 °C 1022.6 hPa NNE 8.5 km/h 11.1 km/h 62 % 0 mm
23:21 5.6 °C -1.2 °C 1022.6 hPa North 15.1 km/h 22.2 km/h 62 % 0 mm
23:26 5.6 °C -0.9 °C 1022.6 hPa North 9 km/h 14.8 km/h 63 % 0 mm
23:31 5.5 °C -0.8 °C 1022.6 hPa NNE 5.8 km/h 11.1 km/h 64 % 0 mm
23:36 5.4 °C -0.9 °C 1022.2 hPa NNW 10.9 km/h 14.8 km/h 64 % 0 mm
23:41 5.3 °C -0.7 °C 1022.6 hPa NNE 10.8 km/h 14.8 km/h 65 % 0 mm
23:46 5.3 °C -0.6 °C 1022.6 hPa NE 9 km/h 16.7 km/h 66 % 0 mm
23:51 5.2 °C -0.2 °C 1022.9 hPa NNE 9.3 km/h 16.7 km/h 68 % 0 mm
23:56 5.1 °C -0.3 °C 1022.6 hPa NNE 9.7 km/h 13 km/h 68 % 0 mm
Crab Meadow Weather
Compliments of Weather Underground - 3 mb

Script developed by  Jim McMurry - jmcmurry@mwt.net Adapted for the template by  Wim van der Kuil - Leuven-Template.eu

Weather Terms: Winter Storm Warning - Hazardous winter weather conditions that pose a threat to life and/or property are occurring, imminent or likely. The generic term, winter storm warning, is used for a combination of two or more of the following winter weather events; heavy snow, freezing rain, sleet and strong winds.